Менделеево

Россия / Тюменская область     58°17′18″N   68°19′29″E
темп.,
°C
ветер,
м/с
пор.,
м/с
влажн.,
%
обл.,
%
осадки,
мм/ч
давл.,
гПа
погр.,
м
16 октября, сб
сб1623:00+7ю5127688 0.0 1028262
02:00+6ю5127959 0.0 1026261
05:00+5ю513826 0.0 1024275
08:00+6ю61478100 0.0 1023349
11:00+10ю71563100 0.0 1021638
14:00+12ююз61056100 0.0 1020983
17:00+10ююз51061100 0.0 1019413
20:00+8ююз3781100 0.2 1019296
17 октября, вс
вс1723:00+7ю3592100 0.7 1019296
02:00+6з5788100 1.2 1018719
05:00+6ююз3785100 1.8 1019277
08:00+6юз3785100 0.0 1019287
11:00+8юз577413 0.0 1019710
14:00+9зюз5862100 0.1 10181267
17:00+8ююз4967100 0.1 1018370
20:00+6ююз411755 0.0 1018264
18 октября, пн
пн1823:00+4ююз49785 0.0 1018185
02:00+3ююз48805 0.0 1018143
05:00+2ююз3783100 0.0 1018121
08:00+2ююз3882100 0.0 1018156
11:00+7юз4864100 0.0 1018338
14:00+8ююз486597 0.0 1017398
17:00+7ю497994 0.0 1016237
20:00+8ююз41076100 0.0 1016354
19 октября, вт
вт1923:00+7ююз368299 0.0 1016123
02:00+6ю338385 0.0 101552
05:00+6ююз367895 0.0 1015116
08:00+6ю367997 0.0 1015137
11:00+9ююз4866100 0.0 1014275
14:00+11ююз51055100 0.0 1013647
17:00+10ююз495597 0.0 1012275
20:00+8ю41064100 0.0 1012213
20 октября, ср
ср2023:00+7ю41068100 0.0 1012221
02:00+6ю4776100 0.0 1011142
05:00+6ююв3674100 0.0 1010117
08:00+7ююв4870100 0.0 1009169
11:00+9ю51056100 0.0 1008426
14:00+11ю474975 0.0 1006552
17:00+9ю3360100 0.0 100646
20:00+7ююз3365100 0.0 100641